(501458) = 2014 AU46

Discovered at Haleakala on 2012-09-26 by Pan-STARRS 1.

Orbit

Orbit type: Main Belt

Note: WebGL enabled browser required.

epoch2023-09-13.0
epoch JD2460200.5
perihelion date2019-01-09.49226
perihelion JD2458492.99226
argument of perihelion (°)320.18084
ascending node (°)124.05781
inclination (°)11.62484
eccentricity0.0948813
perihelion distance (AU)2.8258337
Tisserand w.r.t. Jupiter3.2
ΔV w.r.t. Earth (km/sec)11.1
semimajor axis (AU)3.1220587
mean anomaly (°)305.07381
mean daily motion (°/day)0.17866610
aphelion distance (AU)3.418
period (years)5.52
P-vector [x]0.08950305
P-vector [y]0.95742582
P-vector [z]0.27445402
Q-vector [x]-0.98189635
Q-vector [y]0.03863348
Q-vector [z]0.18543736
absolute magnitude16.66
phase slope0.15
uncertainty0
referenceMPEC 2023-Y111
observations used145
oppositions10
arc length (days)5417
first opposition used2009
last opposition used2023
residual rms (arc-secs)0.78
perturbers coarse indicatorM-v
perturbers precise indicator003Ek
first observation date used2009-03-01.0
last observation date used2023-12-30.0
computer nameMPCLINUX
JD of orbit computation2458018.324774
perihelion JD uncertainty (days)1.6781E-04
argument of perihelion uncertainty (°)3.1706E-05
ascending node uncertainty (°)1.7251E-05
inclination uncertainty (°)2.9450E-06
eccentricity uncertainty 2.3847E-08
perihelion distance uncertainty (AU)9.9660E-08
Minimum Orbit Intersection Distances (in AU)
for orbit epoch: 2460200.5, reference: E2023-YB1
Mercury2.52458
Venus2.11475
Earth1.85197
Mars1.24107
Jupiter1.7659
Saturn6.23439
Uranus15.3836
Neptune26.8206

Observations

145 total observations over interval: 2009 03 01.42360 – 2023 12 30.252634
These data are available for download (format description).

